Location: Medlow Airstrip Trail, Medlow Bath NSW 2780, Australia
(33.6682°S, 150.3233°E)
Time: 02:03:22
(UTC+11:00)

Courier 1B - All Passes

Search period start: 24 October 2019 00:00
Search period end: 03 November 2019 00:00
Orbit: 962 x 1209 km, 28.3° (Epoch: 23 October)

Date Brightness Start Highest point End Pass type
(mag) Time Alt. Az. Time Alt. Az. Time Alt. Az.
24 Oct - 03:04:02 10° N 03:07:04 13° NNE 03:10:03 10° NE visible
24 Oct - 04:54:32 10° NW 05:00:24 34° NNE 05:06:10 10° E visible
24 Oct - 06:47:40 10° WNW 06:53:59 53° N 07:00:19 10° E daylight
24 Oct - 08:41:29 10° W 08:47:42 48° N 08:54:03 10° ENE daylight
24 Oct - 10:35:53 10° WNW 10:41:14 26° NNW 10:46:45 10° NNE daylight
25 Oct - 04:01:13 10° NW 04:06:48 28° NNE 04:12:15 10° ENE visible
25 Oct - 05:54:01 10° WNW 06:00:21 50° N 06:06:35 10° E daylight
25 Oct - 07:47:45 10° W 07:54:02 52° N 08:00:23 10° ENE daylight
25 Oct - 09:41:57 10° W 09:47:37 32° NNW 09:53:27 10° NE daylight
25 Oct - 11:38:33 10° NW 11:40:58 12° NNW 11:43:26 10° N daylight
26 Oct - 03:08:03 10° NNW 03:13:12 23° NNE 03:18:12 10° ENE visible
26 Oct - 05:00:23 10° WNW 05:06:42 45° NNE 05:12:51 10° E visible
26 Oct - 06:54:02 10° WNW 07:00:23 54° N 07:06:43 10° ENE daylight
26 Oct - 08:48:05 10° W 08:54:01 38° NNW 09:00:02 10° NE daylight
26 Oct - 10:43:30 10° WNW 10:47:23 16° NNW 10:51:21 10° N daylight
27 Oct - 02:15:08 10° NNW 02:19:36 18° NNE 02:23:55 10° ENE visible
27 Oct - 04:06:48 10° NW 04:13:04 39° NNE 04:19:06 10° E visible
27 Oct - 06:00:17 10° WNW 06:06:44 55° N 06:13:03 10° ENE daylight
27 Oct - 07:54:16 10° W 08:00:24 44° NNW 08:06:32 10° ENE daylight
27 Oct - 09:49:06 10° WNW 09:53:49 21° NNW 09:58:38 10° NNE daylight
28 Oct - 01:22:42 10° N 01:25:58 14° NNE 01:29:10 10° ENE night (unlit)
28 Oct - 03:13:16 10° NW 03:19:25 34° NNE 03:25:18 10° E visible
28 Oct - 05:06:31 10° WNW 05:13:04 53° N 05:19:23 10° E visible
28 Oct - 07:00:28 10° W 07:06:46 49° N 07:13:00 10° ENE daylight
28 Oct - 08:54:57 10° WNW 09:00:15 27° NNW 09:05:35 10° NNE daylight
29 Oct - 02:19:52 10° NW 02:25:45 28° NNE 02:31:24 10° ENE visible
29 Oct - 04:12:46 10° WNW 04:19:23 50° N 04:25:42 10° E visible
29 Oct - 06:06:40 10° W 06:13:07 53° N 06:19:25 10° ENE daylight
29 Oct - 08:00:58 10° W 08:06:41 33° NNW 08:12:23 10° NE daylight
29 Oct - 09:57:33 10° NW 09:59:57 12° NNW 10:02:22 10° N daylight
30 Oct - 01:26:37 10° NNW 01:32:06 23° NNE 01:37:21 10° ENE visible
30 Oct - 03:19:02 10° WNW 03:25:41 45° NNE 03:32:01 10° E visible
30 Oct - 05:12:50 10° WNW 05:19:27 55° N 05:25:49 10° ENE visible
30 Oct - 07:07:02 10° W 07:13:06 39° NNW 07:19:03 10° NE daylight
30 Oct - 09:02:28 10° WNW 09:06:25 17° NNW 09:10:21 10° N daylight
31 Oct - 00:33:39 10° NNW 00:38:25 18° NNE 00:43:02 10° ENE night (unlit)
31 Oct - 02:25:21 10° NW 02:31:59 40° NNE 02:38:16 10° E visible
31 Oct - 04:18:58 10° WNW 04:25:45 55° N 04:32:12 10° ENE visible
31 Oct - 06:13:08 10° W 06:19:29 45° NNW 06:25:37 10° ENE daylight
31 Oct - 08:08:02 10° WNW 08:12:52 22° NNW 08:17:41 10° NNE daylight
31 Oct - 23:41:11 10° N 23:44:44 14° NNE 23:48:13 10° ENE night (unlit)
01 Nov - 01:31:46 10° NW 01:38:16 34° NNE 01:44:27 10° E visible
01 Nov - 03:25:07 10° WNW 03:32:02 54° N 03:38:33 10° E visible
01 Nov - 05:19:13 10° W 05:25:49 50° N 05:32:08 10° ENE visible
01 Nov - 07:13:49 10° WNW 07:19:20 28° NNW 07:24:42 10° NE daylight
02 Nov - 00:38:18 10° NW 00:44:33 29° NNE 00:50:30 10° ENE night (unlit)
02 Nov - 02:31:16 10° WNW 02:38:17 50° N 02:44:53 10° E visible
02 Nov - 04:25:18 10° W 04:32:08 54° N 04:38:35 10° ENE visible
02 Nov - 06:19:44 10° W 06:25:45 34° NNW 06:31:32 10° NE daylight
02 Nov - 08:16:12 10° NW 08:18:58 13° NNW 08:21:43 10° N daylight
02 Nov - 23:45:03 10° NNW 23:50:49 23° NNE 23:56:23 10° ENE night (unlit)
